DIRECTV 8

Last updated on Thu Nov 21 2024 00:02:40 GMT+0000 (Coordinated Universal Time)

1 28659U 05019A 24325.05726944 .00000003 00000+0 00000+0 0 9999 2 28659 0.0131 293.5527 0003279 315.7033 71.8981 1.00271620 71318
UTC large
Height (km)
Speed (km/s)
/
Latitude / Longitude
Inclination (degrees)
Orbital Period (minutes)
Azimuth
Elevation
Range (km)
Doppler Factor

Next 0 passes for location: London (51.5072 / 0.1276)

Sorry there are no passes over London.